Location: Harwich
(41.6860°N, 70.0760°W)
Time: 02:25:47
(UTC-04:00)

Cosmos 2228 - Visible Passes

Search period start: 05 August 2015 00:00
Search period end: 15 August 2015 00:00
Orbit: 593 x 621 km, 82.5° (Epoch: 04 August)

Date Brightness Start Highest point End Pass type
(mag) Time Alt. Az. Time Alt. Az. Time Alt. Az.
05 Aug 4.9 00:37:54 28° NW 00:37:54 28° NW 00:40:32 10° N visible
05 Aug 5.0 23:14:28 22° NE 23:14:28 22° NE 23:16:26 10° NNE visible
06 Aug 5.3 00:51:21 20° NW 00:51:21 20° NW 00:53:38 10° NNW visible
06 Aug 4.6 23:27:55 30° NNE 23:27:55 30° NNE 23:30:19 10° NNE visible
07 Aug 5.7 01:04:48 13° WNW 01:04:48 13° WNW 01:06:15 10° NW visible
07 Aug 4.5 23:41:20 36° N 23:41:20 36° N 23:43:59 10° N visible
08 Aug 5.5 22:17:51 11° ENE 22:17:51 11° ENE 22:18:20 10° NE visible
08 Aug 4.7 23:54:45 33° NNW 23:54:45 33° NNW 23:57:28 10° N visible
09 Aug 5.1 22:31:16 18° NE 22:31:16 18° NE 22:32:54 10° NE visible
10 Aug 5.0 00:08:09 25° NW 00:08:09 25° NW 00:10:44 10° NNW visible
10 Aug 4.6 22:44:39 26° NE 22:44:39 26° NE 22:46:57 10° NNE visible
11 Aug 5.5 00:21:32 17° NW 00:21:32 17° NW 00:23:42 10° NNW visible
11 Aug 4.3 22:58:01 36° NNE 22:58:01 36° NNE 23:00:43 10° NNE visible
12 Aug 5.9 00:34:54 11° WNW 00:34:54 11° WNW 00:35:45 10° NW visible
12 Aug 4.2 23:11:22 41° N 23:11:22 41° N 23:14:19 10° N visible
13 Aug 5.1 21:47:49 15° ENE 21:47:49 15° ENE 21:49:10 10° NE visible
13 Aug 4.6 23:24:42 33° NW 23:24:42 33° NW 23:27:43 10° N visible
14 Aug 4.6 22:01:07 23° ENE 22:01:07 23° ENE 22:03:28 10° NNE visible
14 Aug 5.1 23:38:00 23° WNW 23:38:00 23° WNW 23:40:52 10° NNW visible
